Location: Unspecified
(50.7693°N, 0.0000°E)
Time: 18:10:43
(UTC+00:00)

A-11 Canister half - Pass Details

Date: 21 June 2019
Orbit: 1526 x 1683 km, 47.3° (Epoch: 19 August)

Event Time Altitude Azimuth Distance (km) Brightness Sun altitude
Rises 03:08:03 0° 190° (S) 4,752 11.0 -5.2°
Reaches altitude 10° 03:12:08 10° 175° (S) 3,746 10.6 -4.8°
Maximum altitude 03:18:34 21° 132° (SE) 2,944 10.6 -4.1°
Drops below altitude 10° 03:24:56 10° 88° (E) 3,703 11.8 -3.4°
Sets 03:28:54 0° 73° (ENE) 4,682 12.9 -2.9°
